Regional Weather Roundup
Issued by NWS Little Rock, AR

Home | Current Version | Previous Version | Graphics & Text | Print | Product List | Glossary On
Versions: 1 2 3 4 5 6 7 8 9 10 11 12 13 14 15 16 17 18 19 20 21 22 23 24 25 26 27 28 29 30 31 32 33 34 35 36 37 38 39 40 41 42 43 44 45 46 47 48 49 50
000
ASUS44 KLZK 282105
RWRLZK

WEATHER ROUNDUP FOR ARKANSAS
NATIONAL WEATHER SERVICE LITTLE ROCK AR
300 PM CST WED JAN 28 2015

NOTE: "FAIR" INDICATES FEW OR NO CLOUDS BELOW 12,000 FEET WITH NO
SIGNIFICANT WEATHER AND/OR OBSTRUCTIONS TO VISIBILITY.

ARZ001-003-010-029-282200-
NORTHWEST ARKANSAS

CITY           SKY/WX    TMP DP  RH WIND       PRES   REMARKS
FAYETTEVILLE   MOSUNNY   67  40  37 SW21G32   29.94F
FORT SMITH     SUNNY     68  42  38 NE14      29.96F
HARRISON       SUNNY     68  39  34 S20G26    29.97F
BENTONVILLE    MOSUNNY   70  37  30 SW17G24   29.94F
ROGERS         MOSUNNY   70  40  33 S16G30    29.93F
SILOAM SPGS    MOSUNNY  N/A N/A N/A S24       29.93F
HIGHFILL       LGT RAIN  70  40  33 S23G32    29.92F
SPRINGDALE     PTSUNNY   70  39  32 S16G28    29.96F
$$

ARZ004-005-016-282200-
NORTH CENTRAL ARKANSAS

CITY           SKY/WX    TMP DP  RH WIND       PRES   REMARKS
BATESVILLE     SUNNY     59  34  38 SE12G17   30.11F
FLIPPIN        MOSUNNY   64  37  36 S9        30.01F
MTN HOME       MOSUNNY   63  36  36 S10       30.01F
$$

ARZ040-041-282200-
WEST CENTRAL ARKANSAS

CITY           SKY/WX    TMP DP  RH WIND       PRES   REMARKS
MENA           SUNNY     73  43  33 S5        30.03F
MOUNT IDA      SUNNY     70  43  37 S8        30.02F
$$

ARZ009-017-025-026-028-282200-
NORTHEAST ARKANSAS

CITY           SKY/WX    TMP DP  RH WIND       PRES   REMARKS
CORNING        FAIR      52  36  54 SE12G17   30.14F
JONESBORO      SUNNY     54  36  50 S16       30.14F
NEWPORT        SUNNY     57  38  49 S14       30.14F
WALNUT RIDGE   SUNNY     54  36  50 S14       30.13F
BLYTHEVILLE    SUNNY     54  32  43 S15       30.16F
$$

ARZ022-023-033-042-044-282200-
CENTRAL ARKANSAS

CITY           SKY/WX    TMP DP  RH WIND       PRES   REMARKS
LITTLE ROCK    PTSUNNY   63  37  38 SE12      30.10F
N LITTLE ROCK  PTSUNNY   62  42  47 SE12G17   30.10F
JACKSONVILLE   SUNNY     62  39  43 SE9       30.10F
SEARCY         SUNNY     61  38  42 S13       30.13F
HOT SPRINGS    MOSUNNY   68  43  40 SE8       30.07F
RUSSELLVILLE   SUNNY     65  40  39 E9        30.04F
CLINTON        FAIR      63  37  39 S9        30.09F
$$

ARZ036-282200-
EAST ARKANSAS

CITY           SKY/WX    TMP DP  RH WIND       PRES   REMARKS
WEST MEMPHIS   SUNNY     59  34  39 S13       30.15F
$$

ARZ050-053-066-070-073-282200-
SOUTHWEST ARKANSAS

CITY           SKY/WX    TMP DP  RH WIND       PRES   REMARKS
ARKADELPHIA    FAIR      73  48  41 SE7       30.08F
CAMDEN         SUNNY     75  39  27 MISG      30.09F
TEXARKANA      SUNNY     76  44  32 S12G21    30.05F
EL DORADO      SUNNY     73  41  31 S14       30.10F
DE QUEEN       SUNNY     77  45  32 S9        30.00F
$$

ARZ056-057-069-282200-
SOUTHEAST ARKANSAS

CITY           SKY/WX    TMP DP  RH WIND       PRES   REMARKS
PINE BLUFF     SUNNY     63  40  42 E13       30.12F
STUTTGART      SUNNY     61  37  41 SE13      30.14F
MONTICELLO     SUNNY     66  39  37 VRB6      30.13F

$$




USA.gov is the U.S. government's official web portal to all federal, state and local government web resources and services.